Location: Asheville, NC
(35.6000°N, 82.5500°W)
Time: 10:10:14

STARS - Pass Details

Date: 10 March 2018
Orbit: 625 x 641 km, 98.3° (Epoch: 18 March)

Event Time Altitude Azimuth Distance (km) Brightness Sun altitude
Rises 19:38:30 0° 357° (N) 2,931 ? -14.0°
Reaches altitude 10° 19:41:04 10° 343° (NNW) 2,016 ? -14.5°
Maximum altitude 19:44:29 23° 291° (WNW) 1,354 ? -15.2°
Drops below altitude 10° 19:47:53 10° 240° (WSW) 1,999 ? -15.9°
Sets 19:50:25 0° 225° (SW) 2,899 ? -16.4°
